Flag for U.S.A. Weather past 2 weeks in Anchorage, Alaska, U.S.A.

Now
42 °F

Clear.


Feels Like: 42 °F
Forecast: 32 / 47 °F
Wind: No wind

Location: Lake Hood Seaplane

Current Time: Sep 30, 2014 at 9:24:29 PM

Latest Report: Sep 30, 2014 at 8:53 PM


Visibility: 10 mi

Pressure: 30.26 "Hg

Humidity: 62%

Dew point: 30 °F

Location of AnchorageLocation

Historic Weather in Anchorage — Graph

°F

Anchorage temperature yesterday

Maximum temperature yesterday: 51 °F (at 5:53 PM)
Minimum temperature yesterday: 39 °F (at 8:53 AM)
Average temperature yesterday: 46 °F

Past Weeks' High & Low Weather Summary

 TemperatureHumidityPressure
High61 °F (Sep 20, 2:53 PM)94% (Sep 18, 11:03 AM)30.25 "Hg (Sep 18, 11:03 AM)
Low34 °F (Sep 25, 7:53 AM)27% (Sep 30, 3:53 PM)29.00 "Hg (Sep 18, 5:53 PM)
Average48 °F70%29.65 "Hg
* Reported Sep 15 7:53 PM — Sep 30 7:53 PM, Anchorage, Weather by CustomWeather, © 2014

Note: Actual official high and low records may vary slightly from our data, if they occured in-between our weather recording intervals... More about our weather records

Advertising

Anchorage weather history for previous 24 hours

 ConditionsComfort  
Time TempWeatherWind HumidityBarometerVisibility
7:53 PM
Sep 30
44 °FSunny.No wind55%30.25 "Hg10 mi
6:53 PM48 °FSunny.5 mph37%30.24 "Hg10 mi
5:53 PM50 °FSunny.3 mph32%30.24 "Hg10 mi
4:53 PM50 °FSunny.5 mph33%30.23 "Hg10 mi
3:53 PM51 °FSunny.No wind27%30.23 "Hg10 mi
2:53 PM50 °FSunny.No wind30%30.22 "Hg10 mi
1:53 PM50 °FSunny.6 mph29%30.22 "Hg10 mi
12:53 PM49 °FSunny.10 mph33%30.21 "Hg10 mi
11:53 AM48 °FSunny.5 mph36%30.20 "Hg10 mi
10:53 AM46 °FSunny.9 mph35%30.19 "Hg10 mi
9:53 AM43 °FSunny.8 mph40%30.18 "Hg10 mi
8:53 AM39 °FClear.6 mph48%30.17 "Hg10 mi
7:53 AM38 °FClear.8 mph53%30.16 "Hg10 mi
6:53 AM40 °FClear.6 mph49%30.15 "Hg10 mi
5:53 AM40 °FClear.6 mph49%30.13 "Hg10 mi
4:53 AM41 °FClear.6 mph47%30.11 "Hg10 mi
3:53 AM42 °FClear.6 mph47%30.09 "Hg10 mi
2:53 AM43 °FClear.8 mph45%30.07 "Hg10 mi
1:53 AM43 °FClear.13 mph47%30.05 "Hg10 mi
12:53 AM44 °FClear.10 mph45%30.03 "Hg10 mi
11:53 PM
Sep 29
43 °FClear.6 mph51%30.01 "Hg10 mi
10:53 PM44 °FClear.8 mph49%29.98 "Hg10 mi
9:53 PM46 °FClear.16 mph46%29.96 "Hg10 mi
Weather by CustomWeather, © 2014

See weather overviewHow to use our weather pages